date,time(arrival),lon,lat,elon,elat,HP-Tx(arrival),HP-Ty(arrival),Cons-Type,date(emission),time(emission),HP-Tx(emission),HP-Ty(emission)
2023-03-18,00:00:00,85.61123887463863,-19.05865138328135,52.80173420011809,16.621451839275064,24.847036931843565,-200.42976186243845,Kent(MLE),2023-03-17,18:03:00.478811,-27.352373282890767,-200.35412251455634
2023-03-18,01:00:00,85.84121394788937,-20.274709038371583,52.54019366219958,16.661640338276452,37.00477631131014,-220.5525470475983,Kent(MLE),2023-03-17,19:08:28.430510,-14.000576286576688,-220.3915182102376
2023-03-18,02:00:00,86.08614951607784,-21.16820348360479,56.21342533289059,16.66858075296105,49.287955686721375,-235.3123977901097,Kent(MLE),2023-03-17,20:16:32.285231,-0.2376962280832231,-235.06838152729097
2023-03-18,03:00:00,86.34770542054991,-21.828217591455633,54.080386615328635,16.54814195775316,61.759194320752634,-246.22335261208957,Kent(MLE),2023-03-17,21:26:13.547992,13.875138938412226,-245.9000000092106
2023-03-18,04:00:00,86.33812385406777,-21.620432509559194,53.01367064925153,16.559113425436074,70.30341379679722,-242.91689348752752,Kent(MLE),2023-03-17,23:08:49.297439,28.49607352568206,-242.5680944874404
2023-03-18,05:00:00,86.60154438773297,-21.886211030836474,53.771606876354625,16.652059544287773,82.8691886161963,-247.40766998236893,Kent(MLE),2023-03-18,00:14:16.149214,41.958889162761565,-246.99272909356026
2023-03-18,06:00:00,86.80532840948734,-21.93538235280031,54.42505012624147,16.87962242336375,94.58554252782211,-248.36746300578218,Kent(MLE),2023-03-18,01:16:35.367389,54.06432073829441,-247.88966966402037
2023-03-18,07:00:00,86.95859427508444,-21.7773027870245,54.20794107713577,17.201924879606604,105.6446268643906,-245.9499709893439,Kent(MLE),2023-03-18,01:53:09.448714,61.76680970133031,-245.37588793006742
2023-03-18,08:00:00,87.05099471590327,-21.39552188014815,56.31326358101361,17.036938337574053,115.94140587270316,-239.87330888127272,Kent(MLE),2023-03-18,02:44:18.029310,70.72632562023985,-239.22228988571572
2023-03-18,09:00:00,87.11227974546155,-20.876810858475032,54.32214642292556,17.298030847986748,125.89992298048972,-231.54713432691662,Kent(MLE),2023-03-18,03:38:39.219491,79.76761724123921,-230.8235730592613
2023-03-18,10:00:00,87.13432989543796,-20.333783124120927,54.263163895167814,17.47444984924293,135.30626341205064,-222.8046387283697,Kent(MLE),2023-03-18,04:33:26.337547,88.31298255896303,-222.010742326998
2023-03-18,11:00:00,87.0059504089239,-19.06020097369741,54.02918300295916,17.49023956260979,143.03134652654398,-201.95590820546678,Kent(MLE),2023-03-18,04:16:47.529382,84.556314678207,-200.95684077483432
2023-03-18,12:00:00,86.93664913023252,-19.7217911217861,50.86357580280188,17.404211836081156,149.98256459681068,-213.03677952910346,Kent(MLE),2023-03-18,05:05:20.583944,90.15187050084921,-211.95976886121286
2023-03-18,13:00:00,87.05955472456102,-18.304725367167016,52.67075941828759,17.475346447558213,161.89251966790795,-189.86478134312668,Kent(MLE),2023-03-18,05:51:00.139505,99.55611192926763,-188.65715797143832
2023-03-18,14:00:00,101.57646180371223,4.729797495258197,56.72798671314255,23.514582962998922,410.82932652608685,187.0834111083173,Kent(MLE),2023-03-18,06:01:04.506390,342.9999834189856,190.82435041101294
2023-03-18,15:00:00,102.10444289907346,6.1982598518179675,55.86509682579069,23.45908729135451,426.0848422401707,210.31826322580397,Kent(MLE),2023-03-18,07:18:08.385418,361.4154951702984,214.08410896043364
2023-03-18,16:00:00,102.054480974923,6.465150285788185,55.948262574913166,23.362192986194902,433.34624906299257,214.22332871578192,Kent(MLE),2023-03-18,07:37:20.956508,363.18175841040727,218.36778718932183
2023-03-18,17:00:00,102.23784364694671,6.598672770021677,56.511319387271634,23.708668911213298,444.1492385145533,215.7005557000028,Kent(MLE),2023-03-18,08:33:53.603003,373.93701732778464,219.98170524922318
2023-03-18,18:00:00,103.08132630826165,7.799248487431617,56.33428078828772,23.489482407033012,463.4693279288653,233.98692334841692,Kent(MLE),2023-03-18,09:04:18.724841,390.15039234294784,238.71109381860006
2023-03-18,19:00:00,103.30064232249713,7.901201505818083,55.87237227815131,23.143678032749254,474.5463632503877,234.85109284318497,Kent(MLE),2023-03-18,09:53:44.343073,400.28164234781747,239.78327845884453
2023-03-18,20:00:00,103.39544057633081,8.11931106010179,56.292127820336404,23.330250039529233,483.5960206074368,237.72497454665807,Kent(MLE),2023-03-18,11:02:34.161504,411.03177482246986,242.6830325666973
2023-03-18,21:00:00,103.66201868070831,8.043355364677867,57.03393420313407,23.516757233780496,495.3902666782401,235.59751348108813,Kent(MLE),2023-03-18,11:21:15.026276,417.70071560977993,241.04222170688934
2023-03-18,22:00:00,103.76639193144358,8.3077071442581,57.37138211315636,23.382375557088576,504.3543744976036,239.18513625102457,Kent(MLE),2023-03-18,11:55:59.752625,423.7553149472645,244.95823959699456
2023-03-18,23:00:00,103.97171464330455,8.33856733684385,56.97842295506019,23.426511021654417,514.9620495282373,238.83432262807483,Kent(MLE),2023-03-18,13:30:09.722464,439.6173665421627,244.4289517346198
2023-03-19,00:00:00,104.14455168872855,8.309037773503812,56.97090392105594,23.5195545945774,525.1062076010074,237.5179523635663,Kent(MLE),2023-03-18,14:23:36.629718,449.4352222314867,243.28995376280824
2023-03-19,01:00:00,104.28763067962402,8.326693014980979,57.34717259164166,23.823146163216133,534.6908455593934,236.99070567288575,Kent(MLE),2023-03-18,14:56:33.134766,455.9512760664203,243.12956844792743
2023-03-19,02:00:00,104.46602587120839,8.51229615927877,57.39445025011916,23.884337760772993,544.4413166739771,239.14775582825723,Kent(MLE),2023-03-18,15:32:27.148533,463.1472903295933,245.63748685934053
2023-03-19,03:00:00,104.71253527271013,8.877773783861691,58.02114590451556,23.79948168482358,554.7401307543141,244.13560768205812,Kent(MLE),2023-03-18,16:31:51.573396,474.16708579913393,250.76470546203552
2023-03-19,04:00:00,104.89124813773472,9.035610139667476,58.193228178069354,23.782208560452954,564.3084426759738,245.8020796283286,Kent(MLE),2023-03-18,17:31:12.155171,484.35673596614447,252.56071441899869
2023-03-19,05:00:00,105.0854858353269,9.234070807551625,57.318229823519154,23.943611481685277,573.9113476319245,248.09334846716118,Kent(MLE),2023-03-18,18:34:08.717665,495.08794577197006,254.9459780754841
2023-03-19,06:00:00,105.32739921088712,9.487418845713547,57.72155515340592,23.644197281763592,583.9308761869181,251.19791661696954,Kent(MLE),2023-03-18,19:48:56.326931,507.8276886490799,258.02572974997014
2023-03-19,07:00:00,105.63216584773444,9.79999105315664,57.05225380265988,23.67947514983359,594.5197249460123,255.1607710763726,Kent(MLE),2023-03-18,20:30:45.093415,516.9818524336631,262.3153227779021
2023-03-19,08:00:00,105.98009995710524,10.16795932008126,57.10879445381548,23.80199749229548,605.382965699339,259.9378430312468,Kent(MLE),2023-03-18,21:20:57.441388,527.5928153261968,267.34010413850456
2023-03-19,09:00:00,106.4166692432577,10.633129920887411,57.340638929587605,24.067126373028646,616.9637928247902,266.13667948989666,Kent(MLE),2023-03-18,22:56:13.649804,544.6966152438815,273.3013320442739
2023-03-19,10:00:00,107.03400032356414,11.153228297905617,58.01239432916052,24.05253513415315,630.3949537165095,272.9331690316649,Kent(MLE),2023-03-18,23:48:13.390255,558.446101557058,280.3580931097947
2023-03-19,11:00:00,107.59217090698134,11.524870857127038,58.75304103603239,24.302626779136578,643.0867557981693,277.36992583330584,Kent(MLE),2023-03-18,23:40:46.059794,564.2340384305669,285.73979804544945
2023-03-19,12:00:00,108.02798104600703,11.774706584572003,59.2192615738802,24.269361991920245,654.3127404977703,279.9830057883881,Kent(MLE),2023-03-19,00:30:43.378474,575.4814456425407,288.6294030376522
2023-03-19,13:00:00,108.38567647359945,11.962586341726524,59.03196661905663,24.527342409960454,664.5495147558833,281.68594252027094,Kent(MLE),2023-03-19,00:44:23.662396,581.3774952168009,291.0315566573053
2023-03-19,14:00:00,108.71324697928655,12.12371917525362,59.21052837104902,24.43412873688026,674.3172959687557,282.9816265240953,Kent(MLE),2023-03-19,01:51:58.254513,593.2285758548776,292.38487347653114
2023-03-19,15:00:00,108.98668115596718,12.265584829321057,59.33359202720675,24.865493615121835,683.3447199086169,284.0288241854265,Kent(MLE),2023-03-19,02:35:41.527019,601.4931836105355,293.76874487083353
2023-03-19,16:00:00,109.20682714048209,12.391987394465602,59.123822769989935,24.470517781417644,691.6618876607721,284.8912297352549,Kent(MLE),2023-03-19,03:20:18.071258,609.1297705843994,294.95142497876435
2023-03-19,17:00:00,109.40180999072392,12.509596047509477,59.50477074745056,24.76944747658059,699.5883922460315,285.63647465865415,Kent(MLE),2023-03-19,03:09:43.144395,610.0846106023911,296.70620700938105
2023-03-19,18:00:00,109.58567181857357,12.617517113299193,60.18427804873173,25.156561661991482,707.2915540962989,286.2303496138359,Kent(MLE),2023-03-19,03:50:00.336779,616.7208190763562,297.6825111122093
2023-03-19,19:00:00,109.76126431991749,12.717983050007534,59.676842743720314,24.82671138019395,714.8012932726052,286.7051306612208,Kent(MLE),2023-03-19,04:30:38.550397,623.2469608103136,298.53777976052885
2023-03-19,20:00:00,109.94258040025193,12.815038813740852,58.98061829692538,24.477959849723668,722.2571247835864,287.10437930511426,Kent(MLE),2023-03-19,04:57:43.000695,628.2709734243278,299.4962580264539
2023-03-19,21:00:00,110.11648435472404,12.90687970243775,58.50805762181911,25.01720882758822,729.5249423007215,287.41999999113403,Kent(MLE),2023-03-19,05:11:09.874873,631.6616807170922,300.55196064088875
2023-03-19,22:00:00,110.29105633903526,13.002804222860119,59.48402705035137,25.263930503700934,736.6626215937719,287.7885373080329,Kent(MLE),2023-03-19,05:59:42.182513,638.9036750407727,301.21377857945623
2023-03-19,23:00:00,110.4627759740207,13.099015330733561,59.32018710208761,25.174644615397693,743.6443801550212,288.15503720709575,Kent(MLE),2023-03-19,07:11:50.424468,648.5951756657254,301.5631126512929
2023-03-20,00:00:00,110.62399076380893,13.192352063024849,59.7759359418166,24.794924000090376,750.4049621592367,288.4817301795975,Kent(MLE),2023-03-19,07:47:22.924818,654.0951922644838,302.3525485027844
2023-03-20,01:00:00,110.71975181512815,13.20834201886148,59.18775058313486,24.80943488398926,756.6494126703595,287.668217284061,Kent(MLE),2023-03-19,08:18:14.881785,658.4877264952748,302.0586752201379
2023-03-20,02:00:00,110.8117379930766,13.215514622513659,59.935266853889,24.956550874147474,762.7878619980307,286.7115742011926,Kent(MLE),2023-03-19,08:59:10.039181,663.8980812263513,301.49046515945366
2023-03-20,03:00:00,110.90135466500543,13.213859515435505,59.15452100364693,24.996785142765983,768.8352019437999,285.6095013105209,Kent(MLE),2023-03-19,09:40:51.813356,669.3424003490064,300.76896758969247
2023-03-20,04:00:00,110.98141121977139,13.20913333316117,58.84393151219625,25.009152817328157,774.7075575151576,284.46638253908014,Kent(MLE),2023-03-19,10:10:52.988763,673.421227312342,300.16699277198893
2023-03-20,05:00:00,111.06044536046308,13.262435471664608,58.65039687455089,24.71797485004836,780.2897509513705,284.2465811369591,Kent(MLE),2023-03-19,10:36:15.176145,676.8173142427705,300.55344075772894
2023-03-20,06:00:00,111.1229655671621,13.254312042204425,59.18936034315052,24.91796817367063,785.8262617914139,283.0641443078558,Kent(MLE),2023-03-19,11:02:06.926658,680.2284923905123,299.9750718056694
2023-03-20,07:00:00,111.18221704202958,13.268356125756085,58.730495349639256,24.65535640386358,791.1715063554411,282.2354437968427,Kent(MLE),2023-03-19,11:43:44.068164,685.138637179559,299.53424613957213
2023-03-20,08:00:00,111.23525918494443,13.275185464905682,58.36061165330692,24.64640888526935,796.3961287467515,281.2952953472516,Kent(MLE),2023-03-19,12:26:00.939026,690.0261548147099,298.9737946036912
2023-03-20,09:00:00,111.28007772032178,13.302639601497685,58.667326092017106,24.599235285587255,801.3932638922627,280.69349820100166,Kent(MLE),2023-03-19,13:08:36.794293,694.7540592199308,298.7460003538754
2023-03-20,10:00:00,111.29256934895066,13.238533522988995,58.34929775332675,24.3149030609963,806.3374403868046,278.6748673325912,Kent(MLE),2023-03-19,13:58:50.223822,700.1142342801543,296.99320691224807
2023-03-20,11:00:00,109.61777775669908,21.436581777135956,59.57765419462792,21.35851923072472,761.741839627713,408.62356641921065,Kent(MLE),2023-03-19,15:00:52.941405,657.6386010878409,425.9722649264762
2023-03-20,12:00:00,109.57550699631624,21.33531683028989,58.974512984327326,21.141851195334613,766.4275442607034,406.23113782632635,Kent(MLE),2023-03-19,16:01:10.354928,663.5037309139977,423.6955953125099
2023-03-20,13:00:00,109.52976707891101,21.230970777104883,57.946939190883995,20.618577275104254,771.044294368237,403.7911413046153,Kent(MLE),2023-03-19,16:59:49.623692,669.1421339730872,421.39183472656
2023-03-20,14:00:00,109.48007619414408,21.095523360171104,58.1234958786411,20.473907370711096,775.7359640215535,400.878237336785,Kent(MLE),2023-03-19,17:56:56.636321,674.690791899005,418.6377188976301
2023-03-20,15:00:00,109.43069154262378,20.9879827410116,56.95418752120675,20.426734312899665,780.2272168912011,398.3822134999065,Kent(MLE),2023-03-19,18:52:36.205240,679.9364817222022,416.31702803305126
2023-03-20,16:00:00,109.37719050155344,20.821056607127602,56.354623480459175,19.897879881163338,784.9406479050012,394.98108039861785,Kent(MLE),2023-03-19,19:46:52.217249,685.2417524674651,413.11568706649086
2023-03-20,17:00:00,109.32174391811198,20.68160766810066,57.24831709428228,19.890713715095234,789.4384912119988,391.9942098325527,Kent(MLE),2023-03-19,20:32:04.410925,689.5238615907349,410.45238147991023
2023-03-20,18:00:00,111.06704276139116,12.274218064291869,55.41296051016277,23.670459511667,842.1907768889761,255.6306793944595,Kent(MLE),2023-03-19,21:16:03.498054,742.5836666993517,275.51282076692553
2023-03-20,19:00:00,110.91040427376565,12.095282006082783,54.53734394499864,23.304262562969942,845.6177876404315,252.01489982983514,Kent(MLE),2023-03-19,22:01:13.497673,745.675519632406,272.20968989410983
2023-03-20,20:00:00,110.6763862195546,12.195451126332614,54.22241768695205,23.054533795612414,847.5598441019506,253.04408831139673,Kent(MLE),2023-03-19,22:47:35.073850,747.2996276561615,273.50127891333966
2023-03-20,21:00:00,110.48049632278718,12.31558207991911,53.57290185805001,22.79515948876206,849.6766137566169,254.32364659808556,Kent(MLE),2023-03-19,23:35:08.483598,749.3437634473946,275.0322529959883
2023-03-20,22:00:00,110.40977367207529,12.405783940730949,53.425929193261695,22.557919489628322,852.7241335504568,254.88777610861683,Kent(MLE),2023-03-20,00:23:53.593564,752.8022377945863,275.8579830949553
2023-03-20,23:00:00,110.37529122396842,12.438241066679359,53.11101375050053,22.35227729654115,856.1457004665018,254.45032947636153,Kent(MLE),2023-03-20,01:13:49.900138,756.8536031909003,275.675369255334
2023-03-21,00:00:00,110.34395629341465,12.457656112661827,53.85215887469665,22.35500155749817,859.5609677036729,253.7932328650944,Kent(MLE),2023-03-20,02:04:56.555116,761.0347144875236,275.2565019003234
2023-03-21,01:00:00,110.2746238120851,12.451803791695356,53.342735411518866,22.387291172450922,862.7409899226346,252.79580243401037,Kent(MLE),2023-03-20,02:57:12.392242,764.982540169896,274.4731632084894
2023-03-21,02:00:00,110.19910505151182,12.355676047378376,52.8949475202313,22.1873589396667,866.1218188895702,250.34969490812145,Kent(MLE),2023-03-20,03:39:14.386262,768.2122430634066,272.4040921544844
2023-03-21,03:00:00,110.06048910696964,12.343707300065931,52.647641660444535,21.848775032625493,868.7655319856179,249.37729329163264,Kent(MLE),2023-03-20,04:19:27.194077,770.4179200409114,271.8194467438978
2023-03-21,04:00:00,109.99548594244112,12.355694413822299,51.18798875863746,21.38687699912395,871.7401901989558,248.65139767329651,Kent(MLE),2023-03-20,04:58:17.562183,773.1137239064547,271.517112729033
2023-03-21,05:00:00,109.94232137013927,12.355413798857802,52.24184492830864,21.797834790856395,874.7647150636432,247.7022946677358,Kent(MLE),2023-03-20,05:35:42.608714,775.8149885170585,271.0182134298412
2023-03-21,06:00:00,109.88502224587921,12.35918039536987,51.47343872632261,21.535743999423033,877.6851639211992,246.82356856597193,Kent(MLE),2023-03-20,06:11:38.979033,778.3210027293995,270.61295898988436
2023-03-21,07:00:00,109.8223232108764,12.367930807470593,52.360064740684926,21.659447882898277,880.4923325909679,246.03293226763168,Kent(MLE),2023-03-20,06:46:02.818701,780.6151924432081,270.31986104357316
2023-03-21,08:00:00,109.75895624508816,12.373007713125144,51.56114142374414,21.581078104717324,883.2441213605948,245.1816618743204,Kent(MLE),2023-03-20,07:18:49.739119,782.7641120050766,269.9930892110753
2023-03-21,09:00:00,109.70035974656284,12.361917953631274,51.56636801333478,21.558924853304596,886.013299391472,244.05748199443627,Kent(MLE),2023-03-20,07:53:49.423739,785.1750435507763,269.36216209110506
2023-03-21,10:00:00,109.64576498956406,12.33719474140504,51.23136814693829,21.455052005165925,888.7853538649373,242.70263921484084,Kent(MLE),2023-03-20,08:44:56.652621,788.9715961520808,268.2480605100691
2023-03-21,11:00:00,109.5937504582077,12.301872096335869,50.927585485551646,21.240855150871703,891.5408053775601,241.16875325573739,Kent(MLE),2023-03-20,09:36:22.648417,792.8076613738799,266.9506677430103
2023-03-21,12:00:00,109.5417070201141,12.260611324176596,51.57782130970913,21.390019735929858,894.249179756369,239.5361323024864,Kent(MLE),2023-03-20,10:28:07.129243,796.6441471940494,265.54936871088705
2023-03-21,13:00:00,109.48856701183165,12.215011321241407,50.60284573889421,21.442295161874423,896.8994805750945,237.83269081112633,Kent(MLE),2023-03-20,11:20:09.805110,800.4655539748403,264.0717245590152
2023-03-21,14:00:00,109.43393762930864,12.164270768935557,50.70587783787195,21.4931893253755,899.4927112470668,236.04622462759806,Kent(MLE),2023-03-20,12:18:26.188996,804.7335565099793,262.409710542438
2023-03-21,15:00:00,109.37792504461876,12.10673197566308,50.13923956601813,21.33623500546022,902.0353035372048,234.14966876657323,Kent(MLE),2023-03-20,13:26:46.172574,809.7290419971398,260.4726874187664
2023-03-21,16:00:00,109.32218426989749,12.034058558107777,51.51255582147575,21.477521631446642,904.563206258437,232.00463208300394,Kent(MLE),2023-03-20,14:35:46.108070,814.7437736055165,258.2740724836234
2023-03-21,17:00:00,109.35526326807194,11.725957085102078,49.93510377494669,21.18535843707307,908.2021120841225,225.86344522814892,Kent(MLE),2023-03-20,15:45:22.280305,821.1532274871138,252.09950141904994
2023-03-21,18:00:00,109.31800831111804,11.619382230423845,49.84857195151101,21.40833070129825,910.7699760933004,223.1238025011854,Kent(MLE),2023-03-20,16:47:42.115401,825.7528434220632,249.4144941330205
2023-03-21,19:00:00,109.27704594672453,11.501159544443908,49.45183938049961,21.489450250355375,913.2858818564795,220.19872441553434,Kent(MLE),2023-03-20,17:41:36.520684,829.6814406971536,246.68167794590383
2023-03-21,20:00:00,114.55379644996427,11.621122783026872,40.13148989262683,21.0531723455158,932.2201251797443,210.58795060132755,Kent(MLE),2023-03-20,18:35:46.099018,870.4101525982422,238.00625851878752
2023-03-21,21:00:00,115.94135511393999,11.506852960635179,37.92627679210447,21.24378716950322,936.8903561611746,204.83545179395918,Kent(MLE),2023-03-20,19:30:36.198208,882.3034301122062,232.5690027674968
2023-03-21,22:00:00,119.13602853317519,13.306329226707717,30.1844814288695,19.620482937979688,935.6421040008479,226.55018220405296,Kent(MLE),2023-03-20,20:35:22.025625,896.2819353555558,254.37593757286706
2023-03-21,23:00:00,nan,nan,nan,nan,nan,nan,Median,2023-03-20,21:40:30.359809,nan,nan
